Погода в Арозе

Швейцария     46°46′56″N   9°40′48″E
темп.,
°C
ветер,
м/с
пор.,
м/с
влажн.,
%
обл.,
%
осадки,
мм/ч
давл.,
гПа
погр.,
м
2 марта, вт
вт201:00−6юв44230 0.0 103423
04:00−6ююв43270 0.0 103422
07:00−6ююв33250 0.0 103422
10:00+1ююв22780 0.0 103328
13:00+2ююз121000 0.0 103229
16:00+2ю119912 0.0 103122
19:00−3юв225950 0.0 103321
22:00−4юв334246 0.0 103422
3 марта, ср
ср301:00−4юв333038 0.0 103421
04:00−4юв222654 0.0 103321
07:00−4юв222340 0.0 103321
10:00+2юв118342 0.0 103122
13:00+2с0110027 0.0 103069
16:00+2ссв019145 0.0 102722
19:00−3юв225043 0.0 102921
22:00−4юв22370 0.0 102821
4 марта, чт
чт401:00−4юв223518 0.0 102721
04:00−5юв223632 0.0 102521
07:00−5юв223864 0.0 102421
10:000ю017395 0.0 102253
13:00+1зсз118951 0.0 1020155
16:000сз118186 0.0 1017186
19:00−5ю117793 0.0 101821
22:00−5ююв018490 0.1 101921
5 марта, пт
пт501:00−5ююв119688 1.4 101823
04:00−4с2299100 3.9 101743
07:00−6ссв1197100 4.2 101840
10:00−4ссз119384 0.3 1017215
13:00−3ссз339990 1.1 1017325
16:00−3ссз3397100 0.4 1017354
19:00−6ссз3398100 0.8 1020197
22:00−9с2298100 0.4 102348
6 марта, сб
сб601:00−11в1198100 0.5 102424
04:00−12вюв119689 0.0 102523
07:00−13вюв118661 0.0 102721
10:00−7ссз01600 0.0 1027197
13:00−4сз21790 0.0 1027357
16:00−4ссз21860 0.0 1026313
19:00−9вюв119621 0.0 102825
22:00−9ююв22900 0.0 103036